Temp
76 76 74 70 69 69 68 68 68 68 65 66 72 72 72 72 72 72 72 71 70 69 69 68 69 68 68 68 68 69 75 72
75 75 74 71 69 67 67 67 67 67 67 65 70 69 71 71 70 70 70 70 69 69 68 67 67 67 67 68 68 69 74 72
74 72 73 72 70 67 67 68 66 65 65 63 68 72 72 71 70 69 69 69 68 68 67 66 66 67 67 67 67 71 73 70
71 72 71 71 71 67 65 65 65 64 64 63 70 71 72 72 69 68 68 68 67 67 66 66 68 65 65 66 67 74 71 69
70 70 70 69 68 66 63 63 63 62 63 61 68 71 70 68 67 67 66 67 66 65 65 68 67 66 67 67 70 73 70 68
70 72 70 69 67 65 64 63 61 63 63 65 68 70 68 68 67 66 66 67 65 65 66 67 66 68 68 69 70 72 69 67
69 69 68 68 66 65 64 63 63 63 65 66 69 70 67 69 69 67 68 68 67 66 66 69 67 68 68 69 69 71 68 67
67 68 68 67 66 65 65 64 63 64 65 68 70 70 68 69 69 69 69 69 70 68 69 67 67 67 67 69 69 69 69 67
66 64 64 65 66 66 64 65 64 63 63 64 69 70 70 70 69 69 71 70 69 67 69 67 66 68 67 67 68 68 69 67
63 63 62 63 66 65 64 65 64 63 63 63 65 67 70 70 69 71 71 71 70 69 66 65 64 64 64 65 66 67 68 68
63 63 62 63 64 65 65 64 64 63 63 64 63 65 68 70 69 68 72 71 68 69 65 64 63 63 65 65 65 65 66 70
63 61 63 63 62 61 63 64 64 64 63 63 64 64 67 69 66 67 67 68 64 64 63 64 63 64 72 67 63 64 65 63
62 61 61 61 59 58 60 60 61 61 63 64 63 64 65 66 65 66 64 64 63 63 62 62 61 63 62 61 60 64 64 63
63 62 62 62 61 60 59 60 60 60 60 61 62 63 64 65 64 64 64 63 62 62 61 60 61 61 58 58 55 58 60 62
63 64 63 62 62 60 59 59 59 58 58 59 61 62 63 64 63 63 62 63 62 61 62 61 59 59 60 59 55 53 56 59
65 66 65 62 64 62 60 58 56 58 59 58 59 60 61 63 64 63 62 63 62 62 64 62 62 58 59 64 60 60 54 53
65 65 65 64 63 63 62 61 61 60 58 58 58 60 60 63 63 61 61 62 61 61 62 61 62 61 60 59 58 59 59 55
65 64 64 64 65 63 63 62 60 59 59 58 59 60 61 62 64 62 63 63 61 62 62 63 62 62 62 60 59 58 57 55
63 63 62 63 64 64 64 62 61 60 60 60 60 60 61 62 63 62 62 63 64 64 64 63 62 60 60 60 60 60 61 59
65 64 63 63 64 63 64 63 63 62 62 62 61 61 62 64 64 65 63 64 64 65 62 62 61 61 60 60 60 60 61 60
MSLP
1007.31 1007.57 1007.65 1007.94 1008.27 1008.54 1008.94 1010.06 1010.94 1011.21 1013.17 1011.88 1012.84 1012.90 1013.27 1013.55 1014.50 1015.39 1016.42 1016.98 1016.91 1017.48 1017.70 1018.18 1018.37 1018.63 1018.96 1019.04 1019.27 1019.42 1019.46 1020.60
1007.48 1007.56 1007.61 1007.79 1008.39 1008.54 1009.13 1009.62 1008.86 1009.76 1011.34 1013.30 1012.83 1013.07 1013.12 1013.89 1014.78 1015.51 1016.66 1017.18 1017.57 1017.75 1018.10 1018.46 1018.75 1019.00 1019.25 1019.18 1019.44 1019.54 1019.94 1020.87
1007.51 1007.62 1007.57 1007.68 1008.10 1008.64 1009.06 1009.77 1010.00 1010.02 1010.69 1013.66 1012.57 1013.15 1013.39 1014.22 1014.87 1015.81 1016.99 1017.61 1017.76 1018.01 1018.35 1018.84 1019.08 1019.33 1019.51 1019.71 1019.67 1019.57 1020.34 1021.44
1007.30 1007.54 1007.73 1007.82 1008.25 1008.75 1009.22 1009.84 1010.34 1010.72 1010.76 1012.53 1012.07 1012.84 1013.47 1013.98 1015.25 1015.94 1017.26 1017.78 1017.92 1018.36 1018.77 1018.99 1019.18 1019.61 1019.89 1019.99 1019.88 1019.95 1020.79 1021.67
1006.97 1007.27 1007.63 1007.94 1008.40 1008.86 1009.09 1009.33 1009.73 1010.90 1011.53 1012.57 1011.62 1012.80 1013.47 1014.33 1015.45 1016.62 1017.61 1017.94 1018.35 1018.77 1019.12 1019.00 1019.26 1019.66 1019.77 1020.00 1019.66 1020.19 1021.15 1021.97
1006.77 1007.16 1007.51 1007.90 1008.19 1008.84 1009.18 1009.33 1009.42 1009.32 1009.66 1011.26 1011.36 1012.31 1013.37 1014.06 1015.05 1016.43 1017.59 1017.95 1018.32 1018.72 1018.75 1018.86 1019.32 1019.54 1019.76 1019.73 1019.77 1020.44 1021.34 1022.17
1006.91 1007.32 1007.77 1008.03 1008.21 1008.56 1009.10 1009.44 1009.62 1009.61 1009.82 1010.34 1010.60 1011.84 1012.93 1013.82 1015.04 1016.43 1016.98 1017.80 1018.09 1018.33 1018.38 1018.64 1019.28 1019.51 1019.81 1019.92 1020.01 1020.60 1021.43 1022.35
1007.21 1007.52 1007.84 1008.17 1008.43 1008.65 1008.92 1009.38 1009.38 1008.90 1008.41 1010.12 1010.77 1011.69 1012.80 1013.82 1014.84 1016.27 1016.68 1017.34 1017.67 1017.77 1018.08 1018.57 1019.20 1019.49 1019.96 1020.07 1020.21 1020.63 1021.32 1022.27
1007.68 1007.92 1008.16 1008.34 1008.52 1008.76 1009.10 1009.50 1009.74 1009.40 1010.17 1010.65 1011.00 1011.64 1012.93 1013.68 1014.65 1015.98 1016.13 1016.78 1017.33 1017.49 1017.99 1018.52 1019.21 1019.60 1020.07 1020.09 1020.48 1020.63 1021.25 1022.08
1007.97 1008.33 1008.46 1008.55 1008.59 1008.93 1009.02 1009.40 1009.95 1010.45 1010.33 1011.02 1011.43 1012.22 1012.64 1013.63 1014.71 1015.42 1015.63 1016.34 1016.88 1017.39 1018.24 1018.68 1019.30 1019.68 1020.00 1020.33 1020.64 1020.79 1021.00 1021.91
1007.94 1008.38 1008.54 1008.58 1008.64 1008.87 1009.35 1009.52 1009.93 1010.45 1011.20 1011.37 1012.17 1012.46 1012.85 1013.74 1014.37 1014.76 1015.25 1015.91 1016.64 1017.46 1018.22 1018.73 1019.18 1019.70 1020.15 1020.38 1020.72 1021.01 1021.21 1021.51
1007.87 1008.38 1008.35 1008.58 1008.61 1008.80 1009.14 1009.43 1010.03 1010.48 1011.14 1011.65 1012.54 1012.94 1013.07 1013.46 1014.24 1014.53 1015.19 1015.85 1016.82 1017.57 1018.15 1018.63 1019.08 1019.53 1019.88 1020.48 1020.82 1020.94 1021.18 1021.63
1007.83 1008.17 1008.61 1008.70 1008.69 1008.81 1008.75 1009.06 1009.51 1010.24 1010.96 1011.60 1012.66 1013.09 1013.45 1013.82 1014.46 1015.31 1015.49 1016.13 1017.12 1017.77 1018.25 1018.88 1019.40 1019.51 1020.12 1020.87 1021.37 1021.27 1021.43 1021.59
1007.69 1008.02 1008.33 1008.71 1008.77 1008.92 1008.84 1009.18 1009.47 1010.16 1011.00 1011.63 1012.56 1013.24 1013.49 1014.08 1014.66 1015.64 1016.10 1016.73 1017.54 1018.14 1018.51 1018.95 1019.50 1019.70 1020.37 1021.69 1021.86 1021.78 1021.62 1021.51
1007.31 1007.67 1007.98 1008.52 1008.82 1009.00 1009.20 1009.68 1010.16 1010.79 1011.49 1012.24 1012.93 1013.46 1013.70 1014.33 1015.26 1016.00 1016.67 1017.29 1017.77 1018.24 1018.65 1019.08 1019.57 1020.21 1019.67 1021.14 1021.14 1021.05 1021.25 1021.23
1006.89 1007.28 1007.62 1008.36 1008.75 1009.06 1009.42 1009.75 1010.25 1010.76 1011.54 1012.55 1013.22 1013.76 1014.31 1014.96 1015.80 1016.36 1016.72 1017.38 1018.00 1018.24 1018.65 1018.79 1019.07 1019.87 1020.23 1020.49 1020.69 1020.58 1020.72 1021.12
1006.42 1007.02 1007.38 1007.92 1008.50 1009.00 1009.50 1010.04 1010.63 1011.36 1012.16 1012.65 1013.31 1014.42 1015.10 1015.65 1016.04 1016.27 1016.92 1017.37 1017.66 1018.04 1018.30 1018.63 1018.83 1019.23 1019.66 1020.01 1020.26 1020.34 1020.43 1020.96
1006.02 1006.65 1007.18 1007.59 1007.93 1008.69 1009.25 1009.80 1010.48 1011.18 1012.05 1012.88 1013.75 1014.55 1015.09 1015.38 1015.70 1016.24 1016.36 1016.87 1017.61 1017.32 1018.20 1018.49 1018.74 1018.39 1019.10 1019.39 1019.72 1020.01 1020.13 1020.32
1005.75 1006.27 1006.83 1007.37 1007.65 1008.20 1008.72 1009.54 1010.34 1010.93 1011.61 1012.46 1013.17 1013.96 1014.39 1014.73 1015.06 1015.53 1016.29 1016.63 1016.78 1017.11 1017.80 1017.76 1018.07 1018.16 1018.64 1018.91 1018.88 1019.17 1019.41 1019.61
1005.01 1005.82 1006.37 1006.99 1007.40 1007.95 1008.60 1009.19 1009.89 1010.63 1011.32 1012.02 1012.73 1013.22 1013.66 1014.21 1014.69 1015.16 1015.55 1016.06 1016.83 1016.57 1016.70 1017.04 1017.52 1017.91 1018.26 1018.47 1018.45 1018.58 1018.76 1018.89
Wind_Speed
2 2 7 9 16 15 15 13 13 17 9 30 24 22 24 24 22 20 19 17 19 20 18 15 11 9 6 6 5 8 13 11
4 4 3 7 7 9 9 11 14 14 17 28 25 22 24 23 22 22 19 18 19 20 18 15 11 9 4 2 7 6 13 12
2 2 3 4 6 5 6 12 15 13 22 27 22 15 18 20 20 22 19 19 19 20 18 15 12 7 2 7 8 2 11 10
3 3 6 6 5 5 6 5 8 10 11 12 15 16 15 16 18 23 20 19 18 19 18 17 11 4 2 3 3 9 10 10
6 4 6 5 4 4 2 1 4 7 11 11 15 13 12 11 11 10 10 15 9 11 12 7 8 5 4 4 3 8 8 9
6 5 2 4 3 4 5 4 4 1 6 11 16 10 11 12 10 11 10 7 10 9 6 8 7 6 5 5 3 8 8 8
7 5 2 1 4 4 5 5 6 4 11 13 13 13 11 12 12 9 10 9 9 7 5 8 7 6 5 4 3 13 12 8
6 3 3 3 4 4 4 4 4 1 9 14 14 13 11 12 12 10 9 10 9 6 7 6 5 5 6 4 3 8 12 13
5 4 3 2 5 5 4 5 5 5 6 4 11 12 13 13 11 10 9 9 10 5 7 5 5 5 5 5 4 4 10 12
6 6 3 3 3 4 1 5 6 7 5 3 5 7 10 12 9 11 10 8 9 6 5 5 5 5 4 5 4 3 6 12
8 7 7 7 4 3 5 5 7 7 7 8 4 3 6 10 8 6 12 8 5 7 4 5 5 5 5 4 4 4 6 4
8 5 4 5 2 3 6 8 9 8 10 10 11 4 6 5 6 8 4 7 5 5 5 4 4 5 7 5 3 3 5 4
9 6 8 3 3 1 3 6 9 8 12 18 12 6 5 9 6 7 5 7 6 5 4 5 4 4 5 5 2 2 2 4
10 9 9 3 4 2 2 6 7 10 10 13 12 7 7 9 9 5 6 6 6 5 4 4 3 4 5 2 3 2 4 5
9 11 12 6 9 6 7 9 8 10 11 10 9 10 8 9 8 7 6 5 5 5 6 6 5 3 6 3 3 4 3 4
10 9 12 10 10 9 12 10 10 9 11 9 9 8 7 7 7 5 7 5 6 6 6 5 5 4 2 6 4 0 2 1
10 11 10 14 10 10 8 10 9 10 8 11 11 8 7 11 7 5 5 5 5 6 6 4 4 4 4 3 4 4 4 3
12 12 12 11 13 14 12 12 14 11 12 12 10 10 9 11 12 10 8 6 7 6 8 10 7 4 4 4 4 4 4 4
12 14 12 11 11 14 13 14 14 16 16 13 14 11 9 12 12 8 7 7 7 9 13 8 6 5 6 5 4 4 3 3
14 14 14 13 12 13 12 15 10 11 14 12 10 11 11 13 13 13 8 11 14 13 5 5 5 5 9 6 4 5 4 5
Wind_Direction
16 168 195 213 173 171 181 193 173 148 215 274 164 150 141 136 137 133 132 130 126 132 124 124 120 105 81 35 5 347 106 104
180 216 256 160 161 166 174 165 174 172 186 256 152 161 138 133 131 129 133 132 134 127 122 118 108 98 82 268 358 346 104 106
154 137 207 134 139 177 173 182 186 178 190 230 149 158 142 136 135 130 134 137 133 127 120 116 112 119 165 1 336 127 95 100
168 147 163 164 162 169 173 179 183 174 198 231 154 153 144 137 133 131 135 133 127 124 125 128 130 138 146 324 287 98 101 105
159 179 116 147 167 166 108 148 162 163 171 201 171 159 140 131 127 127 133 131 130 129 138 148 139 152 161 218 200 97 105 107
158 158 138 169 147 156 162 151 205 31 196 205 169 148 144 135 134 141 144 149 147 155 169 133 150 166 184 119 165 111 116 115
138 140 180 162 138 117 134 141 165 220 218 207 155 143 139 139 138 150 150 146 149 171 174 149 143 165 125 145 215 115 120 122
116 122 125 147 133 126 109 126 154 135 122 162 153 142 142 145 141 156 164 160 158 177 140 139 142 135 140 172 119 122 128 133
138 101 96 134 137 134 140 131 122 107 111 92 132 136 151 146 142 167 163 168 159 166 135 136 121 140 154 135 126 144 143 133
116 134 134 201 183 151 137 145 140 137 118 96 95 115 141 148 157 170 150 164 166 133 139 135 142 143 143 154 150 151 126 149
141 147 175 188 205 194 179 164 158 152 152 143 165 137 135 152 174 162 152 148 139 140 136 157 144 134 149 158 152 154 139 161
134 158 163 122 146 203 204 181 177 165 165 156 164 163 148 145 111 104 105 111 104 111 120 115 146 158 166 133 124 135 156 171
157 148 133 148 121 116 173 164 172 152 170 159 154 148 105 101 91 101 108 94 105 116 106 116 64 63 79 62 9 231 202 191
155 163 142 151 115 60 101 125 129 122 125 129 129 125 102 114 111 92 83 103 112 112 105 97 74 91 123 139 205 259 239 227
172 172 144 128 118 105 98 103 115 125 120 119 113 110 98 102 106 124 113 120 129 128 136 145 149 227 134 188 208 209 157 191
175 171 147 141 145 137 136 137 139 135 138 127 118 107 97 114 128 144 130 146 163 175 187 181 140 160 178 232 240 228 212 120
169 171 160 152 157 152 145 143 135 142 139 133 128 139 164 166 152 139 171 185 174 195 169 194 202 177 174 161 221 227 207 184
169 172 167 168 156 154 161 150 148 146 153 157 164 172 178 167 170 190 185 184 199 178 209 203 210 173 217 224 188 183 201 195
172 176 176 175 173 162 161 156 160 163 161 169 170 179 185 184 189 205 187 200 210 203 220 204 202 189 218 229 217 217 218 230
184 178 178 176 183 167 167 166 170 170 173 174 178 183 184 184 190 202 192 194 223 210 183 182 195 206 218 220 216 218 212 210